Location: Copper Breaks State Park
(34.1132°N, 99.7492°W)
Time: 05:15:11
(UTC-05:00)

Amateur Radio Satellites - All Passes

Search period start: 21 April 2014 04:45
Search period end: 22 April 2014 04:45
Location: Copper Breaks State Park, 34.1132°N, 99.7492°W

Satellite Date Start Highest point End Downlink Frequencies (MHz)
Time Altitude Azimuth
AO-7 21 Apr 04:50:15 04:56:00 20° 95° (E) 05:01:42 29.400 - 29.500 MHz
TMSAT-1 21 Apr 04:51:39 04:56:57 74° 102° (ESE) 05:02:14 436.925 FM
Uribyol 2 21 Apr 05:02:28 05:05:52 18° 294° (WNW) 05:09:15 436.500 FM
KITSAT 1 21 Apr 05:28:54 05:34:26 20° 316° (NW) 05:40:00 435.175 FM
Gurwin Techsat 1B 21 Apr 05:45:17 05:49:28 24° 292° (WNW) 05:53:39 435.225 FM
Uosat F 21 Apr 06:01:34 06:06:31 64° 286° (WNW) 06:11:26 435.120 FM
RS-15 21 Apr 06:04:36 06:14:04 31° 105° (ESE) 06:23:12 29.354 - 29.394 USB, Beacon 29.352 USB
JAS-1B 21 Apr 06:06:25 06:11:56 55° 287° (WNW) 06:17:50 435.800 - 435.900 CW/SSB
TMSAT-1 21 Apr 06:34:15 06:36:12 12° 297° (WNW) 06:38:08 436.925 FM
AO-7 21 Apr 06:41:03 06:49:19 73° 290° (WNW) 06:57:36 29.400 - 29.500 MHz
STRAND 1 21 Apr 07:03:16 07:08:00 39° 71° (ENE) 07:12:44 ?
MaSat-1 21 Apr 07:19:49 07:22:33 26° 66° (ENE) 07:25:42 437.345 MHz
JAS-2 21 Apr 07:28:11 07:31:20 15° 95° (E) 07:34:37 435.800 - 435.900 CW/SSB, 435.910 FM
Hamsat 21 Apr 07:36:48 07:41:05 54° 100° (E) 07:45:22 145.90 MHz
AO-40 21 Apr 07:49:28 09:18:01 15° 116° (ESE) 10:14:08 Beacon 2401.320
RS-15 21 Apr 08:14:24 08:25:39 64° 303° (WNW) 08:36:34 29.354 - 29.394 USB, Beacon 29.352 USB
PANSAT 21 Apr 08:23:14 08:26:15 22° 165° (SSE) 08:29:17 not established
AO-7 21 Apr 08:37:05 08:40:41 14° 308° (NW) 08:44:17 29.400 - 29.500 MHz
STRAND 1 21 Apr 08:43:37 08:47:16 20° 265° (W) 08:50:57 ?
MaSat-1 21 Apr 08:59:12 09:00:49 13° 252° (WSW) 09:02:34 437.345 MHz
JAS-2 21 Apr 09:11:09 09:16:35 61° 286° (WNW) 09:22:39 435.800 - 435.900 CW/SSB, 435.910 FM
HO-68 21 Apr 09:12:38 09:13:26 10° 90° (E) 09:14:14 435.675 MHz FM
Hamsat 21 Apr 09:15:14 09:16:34 11° 294° (WNW) 09:17:54 145.90 MHz
SO-67 21 Apr 09:21:18 09:24:31 35° 285° (WNW) 09:27:44 435.3500 MHz FM
Sapphire 21 Apr 09:24:19 09:27:45 17° 51° (NE) 09:31:09 437.095 MHz 1200 baud AX-25 AFSK
PANSAT 21 Apr 10:02:32 10:06:05 35° 177° (S) 10:09:38 not established
PCSat 21 Apr 10:07:50 10:12:57 41° 59° (ENE) 10:18:02 145.825 MHz
Saudisat 1A 21 Apr 10:17:09 10:20:09 18° 109° (ESE) 10:23:09 436.775 MHz
RS-15 21 Apr 10:33:48 10:40:44 18° 329° (NNW) 10:47:36 29.354 - 29.394 USB, Beacon 29.352 USB
Oscar 11 21 Apr 10:54:44 10:58:42 34° 98° (E) 11:02:39 145.825 FM, Beacon 2401.500 USB
HO-68 21 Apr 10:54:45 11:01:58 81° 105° (ESE) 11:09:10 435.675 MHz FM
Sapphire 21 Apr 11:06:15 11:11:36 63° 247° (WSW) 11:16:55 437.095 MHz 1200 baud AX-25 AFSK
KITSAT 1 21 Apr 11:28:10 11:34:36 25° 48° (NE) 11:40:58 435.175 FM
PANSAT 21 Apr 11:42:35 11:45:57 28° 190° (S) 11:49:19 not established
PCSat 21 Apr 11:51:58 11:56:02 22° 254° (WSW) 12:00:06 145.825 MHz
Saudisat 1A 21 Apr 11:55:17 11:59:26 38° 304° (NW) 12:03:37 436.775 MHz
FUNcube-1 21 Apr 12:26:36 12:30:51 64° 284° (WNW) 12:35:11 145.950 - 145.970 MHz USB
Oscar 11 21 Apr 12:31:44 12:34:36 17° 292° (WNW) 12:37:28 145.825 FM, Beacon 2401.500 USB
Oscar 10/S400 21 Apr 12:37:51 14:22:07 43° 257° (WSW) 19:18:01 145.825 - 145.975 CW/USB, Beacon 145.810 USB
HO-68 21 Apr 12:44:30 12:48:48 17° 301° (WNW) 12:53:06 435.675 MHz FM
RS-15 21 Apr 12:58:31 13:00:05 10° 8° (N) 13:01:40 29.354 - 29.394 USB, Beacon 29.352 USB
KITSAT 1 21 Apr 13:22:36 13:30:39 71° 247° (WSW) 13:38:37 435.175 FM
PANSAT 21 Apr 13:23:54 13:25:39 13° 202° (SSW) 13:27:24 not established
AO-27 21 Apr 13:41:13 13:43:28 13° 64° (ENE) 13:45:44 436.795 MHz FM
Oscar 19 21 Apr 13:48:48 13:53:13 30° 70° (ENE) 13:57:39 437.125 CW, 437.150 USB
ITAMSAT 1 21 Apr 13:50:27 13:53:30 16° 65° (ENE) 13:56:33 435.822 SSB
Oscar 16 21 Apr 13:57:06 14:01:49 39° 71° (ENE) 14:06:35 437.025 USB, Beacon 2401.1428
Uribyol 2 21 Apr 14:36:05 14:41:01 49° 73° (ENE) 14:45:59 436.500 FM
ISS 21 Apr 14:43:10 14:46:25 54° 134° (SE) 14:49:42 145.800 FM
JAS-1B 21 Apr 15:00:47 15:04:01 13° 62° (ENE) 15:07:02 435.800 - 435.900 CW/SSB
SO-50 21 Apr 15:00:57 15:04:46 28° 112° (ESE) 15:08:36 436.795 FM
RS-15 21 Apr 15:08:53 15:18:01 29° 43° (NE) 15:27:15 29.354 - 29.394 USB, Beacon 29.352 USB
AO-Echo 21 Apr 15:11:44 15:17:00 84° 76° (ENE) 15:22:09 ?
AO-27 21 Apr 15:17:13 15:22:22 67° 258° (WSW) 15:27:33 436.795 MHz FM
Gurwin Techsat 1B 21 Apr 15:22:22 15:27:15 39° 71° (ENE) 15:32:08 435.225 FM
ITAMSAT 1 21 Apr 15:27:28 15:32:31 53° 259° (W) 15:37:35 435.822 SSB
Oscar 19 21 Apr 15:28:12 15:32:28 27° 264° (W) 15:36:48 437.125 CW, 437.150 USB
Uosat F 21 Apr 15:36:04 15:37:50 12° 63° (ENE) 15:39:37 435.120 FM
Oscar 16 21 Apr 15:37:33 15:41:16 20° 265° (W) 15:45:01 437.025 USB, Beacon 2401.1428
AO-7 21 Apr 15:46:02 15:51:51 22° 57° (ENE) 15:57:39 29.400 - 29.500 MHz
TMSAT-1 21 Apr 16:08:39 16:13:56 79° 76° (ENE) 16:19:14 436.925 FM
Uribyol 2 21 Apr 16:17:35 16:20:42 16° 266° (W) 16:23:50 436.500 FM
ISS 21 Apr 16:21:15 16:23:23 16° 329° (NNW) 16:25:31 145.800 FM
OPAL 21 Apr 16:35:27 16:40:41 85° 286° (WNW) 16:45:54 ?
SO-50 21 Apr 16:41:34 16:45:16 25° 307° (NW) 16:49:00 436.795 FM
JAS-1B 21 Apr 16:45:39 16:53:59 86° 75° (ENE) 17:00:54 435.800 - 435.900 CW/SSB
Gurwin Techsat 1B 21 Apr 17:03:18 17:07:17 21° 265° (W) 17:11:17 435.225 FM
UOSAT-12 21 Apr 17:10:56 17:14:57 32° 112° (ESE) 17:19:03 437.025 FM, 437.400 FM
Uosat F 21 Apr 17:11:00 17:16:00 69° 258° (WSW) 17:21:01 435.120 FM
RS-15 21 Apr 17:20:30 17:31:28 78° 245° (WSW) 17:42:48 29.354 - 29.394 USB, Beacon 29.352 USB
AO-7 21 Apr 17:35:30 17:43:46 76° 254° (WSW) 17:52:04 29.400 - 29.500 MHz
Hamsat 21 Apr 18:27:20 18:30:42 24° 71° (ENE) 18:34:05 145.90 MHz
JAS-1B 21 Apr 18:40:54 18:44:47 14° 266° (W) 18:48:25 435.800 - 435.900 CW/SSB
UOSAT-12 21 Apr 18:51:28 18:55:07 23° 308° (NW) 18:58:50 437.025 FM, 437.400 FM
STRAND 1 21 Apr 19:18:38 19:22:03 18° 94° (E) 19:25:27 ?
JAS-2 21 Apr 19:20:20 19:25:32 35° 71° (ENE) 19:30:21 435.800 - 435.900 CW/SSB, 435.910 FM
AO-7 21 Apr 19:36:11 19:37:36 11° 270° (W) 19:39:01 29.400 - 29.500 MHz
RS-15 21 Apr 19:37:17 19:42:02 14° 261° (W) 19:46:53 29.354 - 29.394 USB, Beacon 29.352 USB
SO-67 21 Apr 19:51:13 19:54:25 36° 75° (ENE) 19:57:39 435.3500 MHz FM
Hamsat 21 Apr 20:03:18 20:06:35 22° 265° (W) 20:09:54 145.90 MHz
Saudisat 1A 21 Apr 20:25:22 20:29:42 56° 59° (ENE) 20:33:59 436.775 MHz
STRAND 1 21 Apr 20:56:35 21:01:23 43° 288° (WNW) 21:06:10 ?
JAS-2 21 Apr 21:05:54 21:10:38 25° 263° (W) 21:15:02 435.800 - 435.900 CW/SSB, 435.910 FM
ISS 21 Apr 21:15:45 21:17:51 15° 30° (NNE) 21:19:57 145.800 FM
HO-68 21 Apr 21:19:21 21:25:54 41° 67° (ENE) 21:32:29 435.675 MHz FM
MaSat-1 21 Apr 21:19:40 21:22:26 30° 111° (ESE) 21:24:53 437.345 MHz
Oscar 11 21 Apr 21:47:17 21:50:08 18° 68° (ENE) 21:52:59 145.825 FM, Beacon 2401.500 USB
Saudisat 1A 21 Apr 22:07:32 22:08:45 11° 253° (WSW) 22:09:58 436.775 MHz
ISS 21 Apr 22:51:32 22:54:50 57° 226° (SW) 22:58:06 145.800 FM
HO-68 21 Apr 23:07:23 23:13:35 32° 262° (W) 23:19:51 435.675 MHz FM
FUNcube-1 21 Apr 23:19:34 23:23:44 62° 76° (ENE) 23:27:51 145.950 - 145.970 MHz USB
Oscar 11 21 Apr 23:22:10 23:26:02 32° 262° (W) 23:29:56 145.825 FM, Beacon 2401.500 USB
SO-50 21 Apr 23:37:26 23:39:13 12° 46° (NE) 23:41:00 436.795 FM
Sapphire 22 Apr 00:01:47 00:06:22 29° 108° (ESE) 00:10:58 437.095 MHz 1200 baud AX-25 AFSK
PCSat 22 Apr 00:45:26 00:50:49 83° 114° (ESE) 00:56:15 145.825 MHz
SO-50 22 Apr 01:15:38 01:20:19 79° 242° (WSW) 01:25:02 436.795 FM
Sapphire 22 Apr 01:44:51 01:49:39 32° 303° (WNW) 01:54:29 437.095 MHz 1200 baud AX-25 AFSK
UOSAT-12 22 Apr 01:45:19 01:47:29 13° 46° (NE) 01:49:38 437.025 FM, 437.400 FM
KITSAT 1 22 Apr 01:53:03 01:59:19 25° 104° (ESE) 02:05:35 435.175 FM
Oscar 19 22 Apr 02:05:28 02:08:09 14° 93° (E) 02:10:50 437.125 CW, 437.150 USB
OPAL 22 Apr 02:11:52 02:13:36 12° 61° (ENE) 02:15:21 ?
Oscar 16 22 Apr 02:13:25 02:17:03 19° 94° (E) 02:20:40 437.025 USB, Beacon 2401.1428
PCSat 22 Apr 02:32:22 02:34:53 13° 312° (NW) 02:37:25 145.825 MHz
Uribyol 2 22 Apr 02:53:13 02:57:20 24° 96° (E) 03:01:27 436.500 FM
UOSAT-12 22 Apr 03:23:27 03:28:09 74° 243° (WSW) 03:32:48 437.025 FM, 437.400 FM
AO-Echo 22 Apr 03:23:29 03:27:47 34° 98° (E) 03:32:02 ?
AO-27 22 Apr 03:34:06 03:39:14 61° 101° (ESE) 03:44:20 436.795 MHz FM
Oscar 19 22 Apr 03:42:42 03:47:47 56° 286° (WNW) 03:52:50 437.125 CW, 437.150 USB
Gurwin Techsat 1B 22 Apr 03:43:02 03:46:59 21° 95° (E) 03:50:56 435.225 FM
ITAMSAT 1 22 Apr 03:44:01 03:49:13 76° 103° (ESE) 03:54:23 435.822 SSB
KITSAT 1 22 Apr 03:46:06 03:54:05 61° 300° (WNW) 04:02:07 435.175 FM
OPAL 22 Apr 03:46:48 03:51:48 73° 256° (WSW) 03:56:54 ?
Oscar 16 22 Apr 03:51:39 03:56:32 42° 288° (WNW) 04:01:23 437.025 USB, Beacon 2401.1428
TMSAT-1 22 Apr 04:28:34 04:33:35 42° 99° (E) 04:38:34 436.925 FM
Uribyol 2 22 Apr 04:32:11 04:36:48 34° 290° (WNW) 04:41:26 436.500 FM
JAS-1B 22 Apr 04:35:37 04:40:07 23° 97° (E) 04:44:54 435.800 - 435.900 CW/SSB
